Showing default

EZIE-C, 63249

Orbit data source: Space-Track

EZIE-C, 63249 is an American payload satellite in SSO that was launched on Sat, 15 Mar 2025 UTC via an FALCON 9 launch vehicle from the Air Force Western Test Range (AFWTR). Payload-class satellites include a variety of spacecraft equipped with specific instruments for various scientific and technological missions. These include communications satellites like Starlink; space stations such as the ISS; scientific satellites like the Hubble; Earth observation satellites from companies like Planet Labs, Umbra, and HawkEye 360; GPS; miniature CubeSats for education and research; and military/defense satellites.

Loading next visibility...
Identifier
63249, 2025-052AR
Orbit
SSO
Country
Flag of USUS
Related business
Manufacturer
APL
Mission
Operational Civil Science
Bus & Motor
CUBESAT 6U, Unknown motor
Mass
~10 kg wet, ~10 kg dry
Launch date (UTC)
2025-03-15 (9 months ago)
Launch vehicle
FALCON 9
Launch site
Air Force Western Test Range (AFWTR)
Object type
Payload
Rocket body
Debris
Shape & HBR
Box, 0.4 m
Radar Cross Section
0.035 m², Medium (>0.1 m² and < 1m²)

Expand to show TLE details & history
Last TLE update: 14 hours ago

TLE from 14 hours ago
0 EZIE-C
1 63249U 25052AR  25347.26864075  .00008844  00000-0  81108-3 0  9992
2 63249  97.7071 237.3880 0004775 105.0375 255.1375 14.95108559 40865
Epoch: 2025-12-13T06:26Z
TLE epoch observation values (Epoch: 2025-12-13T06:26:50.560Z)
Latitude
0.00001°
Longitude
58.47899°
Altitude
585.938 km
Speed
7.567 km/s
True Right ascension
15h 49m 33s
True Declination
0° 00' 00"
Sunlit
Object was in daylight at epoch
Visualization orbit readout
Latitude
Unknown
Longitude
Unknown
Altitude
Unknown
Speed
Unknown
Apparent Right ascension
Unknown
Apparent Declination
Unknown
Sunlit
N/A
Visualization observer readout
Local Sidereal Time
18:30:09
Azimuth
Unknown
Elevation
Unknown
Doppler factor
Unknown
Orbital elements
Apogee altitude
582.37 km
Perigee altitude
575.726 km
Semi-major axis
6,957.185 km
Eccentricity
0.00048
Inclination
97.7071°
RAAN
237.388°
Arg. of periapsis
105.0375°
True anomaly
255.08462°
Mean anomaly
255.1375°
Eccentric anomaly
255.11106°
Mean motion
3.74018 °/min
Orbital period
96.25 mins
BSTAR
0.00081108
Loading maneuver chart data...
Computing Atmospheric mass density...
Loading historical data...
Loading historical data...
Loading historical data...
Loading historical data...
Loading historical data...
Loading historical data...
Loading historical data...

Documentation

Showing up to 5 results
|